Weather History for KCLE - January, 2014

Change the Weather History Date:

Sunday, January 19, 2014

  Actual Average Record
Temperature  
Mean Temperature 28 °F 28 °F  
Max Temperature 35 °F 34 °F 67 °F (1907)
Min Temperature 20 °F 22 °F -20 °F (1994)
Degree Days  
Heating Degree Days 37 37  
Month to date heating degree days 748 702  
Since 1 July heating degree days 2912 2809  
Cooling Degree Days 0 0  
Month to date cooling degree days 0 0  
Year to date cooling degree days 0 0  
Moisture  
Dew Point 17 °F    
Average Humidity 70    
Maximum Humidity 84    
Minimum Humidity 56    
Precipitation  
Precipitation 0.02 in 0.09 in 0.97 in (1986)
Month to date precipitation 1.52 1.76  
Year to date precipitation 1.52 1.76  
Snow  
Snow 0.20 in 0.60 in - ()
Month to date snowfall 13.2 11.4  
Since 1 July snowfall 35.4 30.0  
Snow Depth 1.00 in    
Sea Level Pressure  
Sea Level Pressure 29.76 in    
Wind  
Wind Speed 15 mph (SW)    
Max Wind Speed 32 mph    
Max Gust Speed 44 mph    
Visibility 8 miles    
Events Snow    
T = Trace of Precipitation, MM = Missing Value Source: NWS Daily Summary

Daily Weather History Graph

Daily Weather History Graph

Search for Another Location

Airport or City:

Trip Planner

Search our weather history database for the weather conditions in past years. The results will help you decide how hot, cold, wet, or windy it might be!

Date:

Astronomy

Jan. 19, 2014 Rise Set
Actual Time 7:49 AM EST 5:27 PM EST
Civil Twilight 7:18 AM EST 5:57 PM EST
Nautical Twilight 6:45 AM EST 6:31 PM EST
Astronomical Twilight 6:12 AM EST 7:04 PM EST
Moon 9:07 PM EST (1/19) 9:15 AM EST (1/19)
Length of Visible Light 10h 38m
Length of Day
9h 38m
Waning Gibbous, 89% of the Moon is Illuminated
Jan 19
Waning Gibbous
Jan 24
Last Quarter
Jan 30
New
Feb 6
First Quarter
Feb 14
Full

Hourly Weather History & Observations

Time (EST) Temp. Windchill Dew Point Humidity Pressure Visibility Wind Dir Wind Speed Gust Speed Precip Events Conditions
12:15 AM 19.9 °F 11.1 °F 15.1 °F 81% 29.82 in 3.0 mi South 6.9 mph - 0.01 in Snow Light Snow
12:36 AM 19.9 °F 12.1 °F 16.0 °F 85% 29.81 in 2.5 mi South 5.8 mph - 0.01 in Snow Light Snow
12:51 AM 19.9 °F 10.1 °F 15.1 °F 81% 29.84 in 2.0 mi South 8.1 mph - 0.01 in Snow Light Snow
1:06 AM 19.9 °F 13.4 °F 16.0 °F 85% 29.80 in 2.5 mi South 4.6 mph - 0.00 in Snow Light Snow
1:51 AM 21.0 °F 12.4 °F 15.1 °F 78% 29.83 in 2.5 mi South 6.9 mph - 0.00 in Snow Light Snow
2:51 AM 19.9 °F 12.1 °F 15.1 °F 81% 29.82 in 8.0 mi SSE 5.8 mph - 0.01 in   Overcast
3:51 AM 21.0 °F 13.4 °F 15.1 °F 78% 29.81 in 5.0 mi SSW 5.8 mph - 0.00 in Snow Light Snow
4:51 AM 21.0 °F 11.4 °F 15.1 °F 78% 29.80 in 10.0 mi South 8.1 mph - 0.00 in   Overcast
5:51 AM 19.9 °F 10.1 °F 14.0 °F 78% 29.80 in 10.0 mi SW 8.1 mph - N/A   Overcast
6:51 AM 21.9 °F 10.4 °F 16.0 °F 78% 29.82 in 10.0 mi West 11.5 mph - N/A   Overcast
7:34 AM 21.9 °F 10.4 °F 16.0 °F 78% 29.78 in 10.0 mi West 11.5 mph - N/A   Overcast
7:51 AM 21.0 °F 8.1 °F 16.0 °F 81% 29.81 in 10.0 mi WSW 13.8 mph - N/A   Overcast
8:11 AM 19.9 °F 8.6 °F 15.1 °F 81% 29.77 in 10.0 mi WSW 10.4 mph - N/A   Mostly Cloudy
8:51 AM 21.0 °F 7.6 °F 16.0 °F 81% 29.82 in 10.0 mi WSW 15.0 mph - N/A   Scattered Clouds
9:51 AM 21.9 °F 9.2 °F 16.0 °F 78% 29.83 in 10.0 mi SW 13.8 mph - N/A   Mostly Cloudy
10:21 AM 21.9 °F 5.8 °F 15.1 °F 75% 29.78 in 9.0 mi WSW 23.0 mph 28.8 mph N/A   Overcast
10:51 AM 21.9 °F 5.8 °F 15.1 °F 75% 29.82 in 10.0 mi SW 23.0 mph 32.2 mph N/A   Overcast
11:51 AM 24.1 °F 10.6 °F 16.0 °F 71% 29.79 in 10.0 mi SW 17.3 mph 33.4 mph N/A   Mostly Cloudy
12:51 PM 26.1 °F 10.7 °F 17.1 °F 69% 29.74 in 10.0 mi SW 25.3 mph 33.4 mph N/A   Overcast
1:51 PM 30.0 °F 16.6 °F 18.0 °F 61% 29.70 in 10.0 mi SW 23.0 mph 33.4 mph N/A   Mostly Cloudy
2:51 PM 30.9 °F 17.8 °F 18.0 °F 59% 29.71 in 10.0 mi SW 23.0 mph 34.5 mph N/A   Overcast
3:51 PM 30.9 °F 17.8 °F 18.0 °F 59% 29.70 in 10.0 mi SW 23.0 mph 35.7 mph N/A   Scattered Clouds
4:51 PM 30.9 °F 19.8 °F 18.0 °F 59% 29.70 in 10.0 mi SW 16.1 mph 35.7 mph N/A   Scattered Clouds
5:51 PM 30.0 °F 18.7 °F 18.0 °F 61% 29.70 in 10.0 mi SW 16.1 mph 32.2 mph N/A   Partly Cloudy
6:51 PM 30.9 °F 19.4 °F 19.0 °F 61% 29.71 in 10.0 mi SW 17.3 mph 25.3 mph N/A   Mostly Cloudy
7:51 PM 32.0 °F 21.6 °F 19.0 °F 59% 29.70 in 10.0 mi SW 15.0 mph 26.5 mph N/A   Overcast
8:51 PM 33.1 °F 21.9 °F 19.9 °F 59% 29.69 in 10.0 mi SSW 18.4 mph 26.5 mph N/A   Overcast
9:51 PM 33.1 °F 23.9 °F 19.9 °F 59% 29.69 in 10.0 mi SSW 12.7 mph 24.2 mph N/A   Overcast
10:51 PM 34.0 °F 23.4 °F 21.0 °F 59% 29.68 in 10.0 mi SW 17.3 mph 27.6 mph N/A   Overcast
11:51 PM 35.1 °F 25.9 °F 21.0 °F 57% 29.65 in 10.0 mi SW 13.8 mph 24.2 mph N/A   Overcast